Temperature
25 24 23 22 21 20 19 19 19 19 18 18 18 18 18 18 18 18 18 18 18 18 18 18 18 18 18 18 18 18 18 18 18 18 18 18 18 18 18 17 17 17 17
25 24 23 22 21 20 20 19 19 19 19 19 19 19 19 19 18 18 18 18 18 18 18 18 18 18 18 18 18 18 18 18 18 18 18 18 18 18 17 17 17 17 17
26 24 24 23 22 21 20 20 19 19 19 19 19 19 19 18 19 18 18 18 18 18 18 18 18 18 18 18 18 18 18 18 18 18 18 18 18 17 17 17 17 17 17
26 25 24 23 22 21 20 20 20 19 19 19 19 19 19 19 19 19 18 18 18 18 18 18 18 18 18 18 18 18 18 18 18 18 18 18 18 17 17 17 17 17 17
27 26 25 24 23 22 21 20 20 20 19 19 19 19 19 19 19 19 19 19 18 18 18 18 18 18 18 18 18 18 18 18 18 18 18 18 18 18 17 17 17 17 16
28 26 25 24 23 22 21 21 20 20 19 19 19 19 19 19 19 19 19 19 19 19 19 18 19 18 18 18 18 18 18 18 18 18 18 18 18 18 18 17 17 17 16
28 27 25 24 24 23 22 21 20 20 20 20 19 19 19 19 19 19 19 19 19 19 19 19 19 18 18 18 18 18 18 18 18 18 18 18 18 18 18 18 17 16 16
28 27 26 25 24 23 22 21 21 20 20 20 20 19 19 19 19 19 19 19 19 19 19 19 19 19 18 18 18 18 18 18 18 18 18 18 18 17 17 17 17 16 16
29 27 26 25 24 23 22 22 21 21 20 20 20 20 20 19 19 19 19 19 19 19 19 19 19 19 18 18 18 18 18 18 18 17 17 17 17 17 17 17 17 17 16
29 28 27 26 25 24 23 22 21 21 21 20 20 20 20 20 20 19 19 19 19 19 19 19 19 18 18 18 18 18 18 18 18 17 17 17 17 17 17 17 17 17 17
29 28 27 26 25 24 23 22 22 21 21 20 20 20 20 20 20 19 19 19 19 19 19 19 19 18 18 18 18 18 18 18 18 18 17 17 17 17 17 17 17 17 16
28 27 27 26 25 24 23 23 22 21 21 21 20 20 20 20 20 19 19 19 19 19 19 19 19 19 18 18 18 18 17 17 17 17 17 17 17 17 17 17 17 16 16
27 27 26 25 25 24 24 23 22 21 21 21 20 20 20 20 20 19 20 19 19 19 19 19 19 18 18 18 18 18 17 17 17 17 17 17 17 17 16 16 16 16 16
27 26 25 25 24 24 23 23 22 22 21 21 20 20 20 20 20 20 19 19 19 19 19 19 18 18 18 18 18 18 17 17 17 17 17 17 17 16 16 16 16 16 16
26 25 25 24 24 23 23 23 22 22 21 21 20 20 20 20 20 20 19 19 19 19 19 19 18 18 18 18 18 18 17 17 17 17 17 16 16 16 16 16 16 15 15
25 25 24 24 23 23 23 22 22 21 21 21 20 20 19 19 19 19 19 19 19 19 18 18 18 18 18 18 18 18 17 17 17 17 17 16 16 16 16 16 15 15 15
25 24 23 23 23 23 22 22 21 21 20 20 20 19 19 19 19 19 19 19 19 19 18 18 18 18 18 18 18 18 17 17 17 16 16 16 16 16 16 16 15 15 15
23 23 22 22 22 22 22 21 21 20 20 20 20 19 19 19 18 18 18 18 18 18 18 18 18 18 18 18 18 18 17 17 17 16 16 16 16 16 16 15 15 15 15
22 22 22 22 22 21 21 21 20 20 20 19 19 19 19 19 18 18 18 18 18 18 18 18 18 18 18 18 18 17 17 17 17 16 16 16 16 16 15 15 15 15 15
22 21 21 21 21 20 20 20 20 19 19 19 19 19 19 18 18 18 18 18 18 17 17 18 18 18 18 18 17 17 17 17 16 16 16 16 16 16 15 15 15 14 14
21 21 20 20 20 20 20 19 19 19 19 19 18 18 18 18 18 17 17 17 17 17 17 17 17 17 17 17 17 17 17 17 16 16 16 16 16 15 15 14 14 14 14
20 20 20 19 19 19 19 19 18 18 18 18 18 18 18 17 17 17 17 17 17 17 17 17 17 17 17 17 17 17 16 16 16 16 15 15 15 15 15 14 14 14 13
20 19 19 19 18 18 18 18 18 18 18 17 17 17 17 17 17 17 17 16 16 16 16 16 16 16 16 16 16 16 16 16 15 15 15 15 15 14 14 14 14 13 13
19 19 18 18 17 17 17 17 17 17 17 17 17 17 16 16 16 16 16 16 16 16 16 16 16 16 16 16 16 16 15 15 15 15 14 14 14 14 14 13 13 13 13
18 18 17 17 17 17 17 17 16 16 16 16 16 16 16 16 16 16 16 16 16 16 16 16 16 15 15 16 15 15 15 15 15 14 14 14 13 13 13 13 13 13 13
17 17 17 17 16 16 16 16 16 16 16 16 15 15 15 15 15 15 15 15 15 15 16 16 16 15 15 15 15 15 15 15 14 14 13 13 13 13 13 12 12 12 12
Wind_Speed
12 11 10 11 10 9 7 6 5 5 3 3 3 3 3 3 3 4 5 5 4 4 2 2 3 1 2 1 2 2 3 2 2 1 1 1 1 2 2 2 2 3 5
13 12 11 11 11 9 8 7 6 6 4 3 3 3 3 3 3 3 4 5 5 4 4 2 2 2 2 2 1 1 1 1 1 2 2 1 0 1 2 3 3 3 4
15 13 12 11 11 11 10 8 7 6 5 4 3 3 3 2 3 4 4 4 5 5 3 4 2 2 2 3 3 2 2 2 2 2 1 2 2 1 1 2 2 3 3
16 15 13 11 11 11 10 8 7 6 5 5 4 5 5 4 4 4 4 5 5 5 4 4 3 2 1 2 3 3 2 3 3 2 2 2 1 2 1 0 2 2 2
16 16 14 12 12 12 11 9 8 6 5 5 4 4 3 3 4 4 5 5 4 4 4 4 3 2 2 2 1 2 2 2 2 2 2 2 2 2 3 2 2 1 1
15 15 14 13 12 12 11 11 9 7 6 6 5 4 3 2 3 4 4 4 4 4 4 5 4 3 2 2 2 2 3 3 2 2 2 2 2 2 2 2 3 3 2
15 15 14 13 12 12 12 11 10 8 7 6 5 5 4 3 3 3 4 4 3 4 4 4 4 3 3 3 3 3 3 3 3 3 2 2 2 2 2 2 2 2 2
15 15 14 13 12 12 11 11 11 9 8 7 6 5 4 4 3 4 3 4 2 3 5 4 4 3 3 3 2 3 3 3 3 4 3 2 2 1 1 2 2 2 2
15 15 15 14 13 12 11 11 10 9 8 8 7 5 5 5 4 4 5 3 3 4 5 4 4 3 3 2 2 2 2 2 3 3 3 3 3 1 1 1 2 2 2
13 15 14 14 13 13 11 10 10 9 8 8 7 7 6 5 4 4 4 3 3 2 5 5 4 4 3 3 3 3 3 2 2 2 1 2 2 2 2 2 2 2 2
11 11 12 13 13 13 12 11 10 9 8 8 7 6 6 6 5 4 4 4 4 3 4 4 4 4 4 3 3 4 4 4 3 3 3 3 2 1 1 2 2 2 2
10 10 11 11 11 12 12 12 11 11 10 8 7 6 6 6 6 6 5 5 5 5 5 5 4 5 5 4 4 5 4 4 4 3 3 3 2 2 2 2 2 1 2
8 9 9 9 9 8 8 9 9 10 10 9 8 7 6 6 6 5 5 5 5 5 5 5 5 5 4 5 4 4 4 3 3 3 3 2 2 2 2 2 2 2 2
8 8 7 7 7 6 6 7 7 8 8 8 8 7 6 5 5 5 4 4 4 4 4 4 4 4 3 4 4 4 3 3 3 2 2 2 2 2 2 3 2 2 1
7 7 7 6 6 6 5 5 6 6 6 7 8 7 6 5 5 5 5 5 5 6 5 5 4 4 4 4 3 3 4 3 2 2 2 2 2 2 1 2 1 2 2
6 6 6 6 5 5 4 4 4 4 5 5 6 5 5 5 5 5 5 5 5 5 4 5 5 5 5 3 3 3 3 3 3 3 2 3 3 3 2 2 2 2 3
6 4 4 5 5 5 4 4 3 4 4 4 4 4 5 5 5 6 5 5 5 5 5 5 5 5 3 5 5 4 3 4 3 3 3 4 3 5 3 3 4 3 3
6 4 3 3 4 4 4 4 4 4 4 4 4 4 5 5 5 5 5 5 5 5 5 6 6 5 5 7 6 6 5 4 4 4 4 3 3 3 3 4 4 4 3
5 4 3 2 3 3 3 2 3 4 4 4 4 4 5 5 5 5 5 4 4 5 5 5 6 6 5 8 8 7 5 5 5 5 4 5 4 4 5 4 5 4 4
4 3 3 3 3 2 2 2 2 2 1 2 2 3 3 4 4 5 5 4 4 4 4 5 5 6 5 9 10 9 5 5 4 4 4 5 5 5 6 5 5 5 5
4 4 3 3 2 2 2 2 1 1 0 1 1 1 2 3 4 4 4 4 4 5 5 5 5 5 6 8 10 10 6 5 4 4 4 3 6 7 7 7 6 6 4
4 3 3 3 2 2 1 1 1 0 0 0 1 1 1 3 4 3 4 4 5 6 6 6 6 5 5 6 9 10 10 7 4 4 3 3 7 7 8 6 6 6 5
3 3 3 2 2 2 1 0 0 1 0 0 1 1 1 2 2 4 4 5 5 6 5 5 5 5 4 5 8 9 10 9 6 4 4 4 6 6 6 8 8 6 5
3 3 2 2 2 2 1 1 1 0 1 1 2 2 2 2 2 3 4 4 4 5 5 5 5 5 4 3 3 5 5 6 7 5 3 5 6 6 6 6 6 5 5
3 2 1 1 1 1 1 1 1 0 1 2 3 3 3 3 3 3 3 4 4 5 5 5 4 4 5 4 5 4 4 5 5 4 3 3 4 4 5 5 5 6 5
3 3 2 2 2 1 1 2 1 1 2 3 3 3 3 3 4 4 3 3 4 4 5 6 6 5 5 5 5 5 5 6 5 4 5 5 6 6 6 6 5 6 5
Wind_Direction
154 154 154 148 147 144 144 147 149 141 148 148 158 166 162 155 148 148 150 151 155 153 162 141 148 176 141 143 159 156 170 184 177 153 109 113 177 161 149 138 136 139 137
156 156 160 157 155 152 153 156 157 155 166 157 164 175 159 158 150 148 149 163 159 161 166 160 176 178 154 161 177 167 170 211 184 153 145 146 95 35 128 133 146 139 133
163 164 168 165 160 158 163 169 164 163 173 167 175 162 150 165 147 152 155 167 168 166 174 163 175 180 176 167 180 190 189 204 225 206 180 171 186 157 95 136 127 120 113
166 169 170 169 166 164 165 160 160 163 169 180 188 180 176 181 162 160 158 164 168 169 173 161 165 184 185 158 196 175 198 195 225 226 222 213 154 153 151 101 120 130 130
167 169 169 169 169 166 164 160 159 165 172 184 189 200 186 178 157 153 156 165 166 169 166 155 161 169 186 180 201 143 212 218 228 231 212 196 176 189 170 180 172 143 132
164 165 165 164 169 168 167 164 161 168 174 186 188 193 200 191 154 159 163 180 170 172 171 161 163 174 187 187 194 205 205 223 235 240 236 215 200 202 184 176 169 164 154
161 160 161 165 169 170 168 164 161 167 176 184 185 185 191 193 181 184 181 194 176 168 166 164 162 180 185 189 189 193 218 218 219 229 239 239 247 214 177 161 160 158 157
161 161 163 163 167 168 164 161 164 170 176 179 179 179 186 195 195 206 202 195 192 161 154 162 172 192 197 195 185 200 208 205 220 230 231 247 258 267 170 170 164 176 184
162 164 166 168 171 170 165 162 162 169 175 177 171 181 193 205 200 188 204 205 187 175 160 170 176 185 201 201 174 204 225 199 217 230 217 232 230 235 226 172 175 187 202
166 166 167 170 169 168 163 163 161 167 170 174 181 185 193 198 200 199 192 192 189 177 165 182 181 182 192 201 198 203 201 207 216 224 226 241 251 230 228 204 224 210 200
158 160 164 166 164 165 166 165 163 168 175 179 186 182 183 191 197 202 192 187 190 182 187 196 191 192 199 205 211 219 206 206 212 216 203 212 243 239 241 220 222 207 181
152 158 160 159 162 167 171 171 172 178 182 181 182 183 184 189 197 198 191 188 188 192 196 196 203 208 205 207 214 228 224 211 213 220 211 219 212 208 249 256 245 218 191
142 150 148 151 155 161 166 167 174 180 182 180 183 184 192 192 197 195 189 191 193 199 200 199 207 215 210 206 213 221 234 221 211 209 213 219 205 214 231 240 237 234 207
135 143 141 148 150 157 157 159 171 179 182 178 182 182 189 189 191 193 190 191 192 197 206 207 211 216 212 210 212 215 221 221 214 196 200 205 206 215 236 231 228 230 212
137 138 145 149 152 149 144 153 167 172 177 177 183 184 187 189 190 191 191 192 199 204 199 205 213 215 219 224 219 229 215 209 208 193 196 185 173 178 217 234 226 213 216
138 144 142 137 136 135 144 153 167 160 153 170 180 175 182 190 196 196 193 192 203 209 202 206 215 220 222 186 189 223 224 207 215 212 208 194 167 168 169 162 157 192 216
115 104 116 126 132 143 147 161 163 150 156 171 177 174 186 200 206 210 201 200 206 209 211 219 219 219 198 191 189 200 221 213 217 223 226 233 212 189 191 199 201 213 231
109 102 107 118 134 139 150 155 162 166 171 179 189 190 191 204 208 215 213 212 211 213 216 223 224 221 213 199 196 202 224 226 219 221 219 221 219 214 209 220 217 222 233
95 99 105 105 103 111 113 129 161 169 180 192 199 198 197 202 205 215 220 222 220 220 222 226 225 226 214 199 197 202 227 231 226 223 220 215 215 206 210 218 225 226 228
98 93 85 81 83 92 117 122 140 156 196 219 218 202 195 205 216 224 225 227 225 229 234 237 233 230 217 200 199 200 224 230 228 224 220 211 204 193 205 220 227 231 231
93 87 80 74 71 75 100 138 161 168 249 290 252 222 205 212 220 222 220 225 229 230 234 238 240 232 214 198 198 197 216 232 232 231 230 210 191 201 214 227 234 234 237
86 82 76 74 77 80 96 151 178 176 58 210 241 239 232 243 238 215 216 221 230 235 238 237 242 236 214 198 203 204 214 231 238 242 235 208 199 205 215 225 231 226 231
68 73 66 55 46 63 84 93 35 70 62 187 218 225 219 234 236 226 227 231 232 237 237 235 239 236 216 198 196 206 218 226 233 251 244 227 207 209 218 225 222 216 220
47 53 67 48 26 31 45 39 350 188 205 230 225 222 219 238 257 251 240 239 240 240 242 240 237 235 227 211 198 203 216 223 230 243 250 218 210 220 225 217 217 219 225
24 19 21 17 355 7 3 352 343 284 257 263 253 240 237 236 238 245 253 251 248 237 238 248 243 240 239 228 206 210 216 218 217 210 221 224 214 217 219 217 215 218 219
5 359 352 340 336 344 337 322 305 259 269 270 261 253 251 245 238 232 244 264 245 240 236 243 236 234 228 220 208 210 215 216 196 200 226 225 222 223 226 225 223 222 222
Height
1513 1517 1519 1521 1523 1524 1525 1526 1527 1528 1529 1530 1531 1532 1534 1535 1536 1537 1538 1539 1541 1542 1543 1545 1546 1547 1548 1549 1550 1551 1552 1553 1554 1555 1556 1557 1557 1558 1558 1559 1559 1560 1561
1511 1515 1518 1520 1522 1523 1524 1525 1527 1528 1529 1530 1531 1533 1534 1536 1536 1537 1538 1539 1541 1542 1543 1544 1545 1546 1547 1548 1549 1550 1551 1552 1553 1554 1555 1556 1558 1557 1557 1558 1558 1559 1560
1508 1512 1516 1519 1520 1522 1523 1525 1526 1527 1529 1530 1531 1533 1534 1535 1537 1537 1538 1539 1540 1541 1542 1544 1545 1546 1547 1547 1548 1549 1550 1551 1552 1553 1554 1554 1555 1556 1557 1557 1558 1559 1559
1504 1509 1513 1516 1519 1521 1522 1524 1525 1526 1528 1529 1531 1533 1534 1535 1536 1537 1538 1539 1540 1541 1542 1543 1544 1545 1545 1546 1547 1548 1549 1550 1551 1552 1552 1553 1553 1554 1555 1557 1557 1558 1558
1500 1506 1510 1514 1517 1519 1521 1522 1524 1525 1527 1528 1530 1532 1534 1535 1536 1537 1538 1539 1540 1540 1541 1542 1543 1544 1544 1545 1546 1547 1547 1548 1549 1550 1550 1551 1552 1552 1553 1554 1556 1556 1557
1497 1503 1508 1512 1515 1518 1520 1521 1522 1524 1526 1527 1529 1531 1532 1534 1535 1536 1537 1538 1539 1540 1541 1541 1542 1543 1543 1544 1544 1545 1545 1546 1547 1548 1548 1549 1550 1550 1551 1552 1553 1554 1555
1494 1500 1505 1509 1513 1516 1518 1520 1521 1523 1525 1526 1528 1529 1531 1532 1534 1535 1537 1538 1539 1539 1540 1541 1541 1542 1542 1542 1543 1543 1543 1544 1544 1545 1546 1547 1548 1549 1550 1550 1551 1552 1553
1492 1497 1502 1506 1510 1513 1516 1518 1519 1521 1523 1525 1526 1528 1530 1532 1533 1534 1536 1537 1538 1538 1539 1540 1540 1540 1541 1541 1541 1541 1542 1542 1543 1543 1544 1544 1546 1547 1548 1548 1549 1550 1551
1489 1495 1500 1504 1508 1511 1514 1516 1518 1520 1522 1524 1525 1527 1529 1530 1532 1533 1534 1535 1536 1537 1538 1538 1538 1539 1539 1539 1540 1540 1540 1541 1541 1541 1542 1542 1543 1545 1545 1546 1547 1548 1548
1487 1492 1497 1501 1505 1509 1512 1514 1516 1518 1520 1522 1524 1526 1527 1529 1531 1532 1533 1534 1535 1536 1536 1536 1537 1537 1537 1538 1538 1538 1538 1539 1539 1539 1540 1540 1541 1542 1543 1543 1544 1545 1545
1485 1490 1495 1499 1503 1506 1509 1512 1514 1517 1519 1521 1522 1524 1526 1527 1529 1530 1531 1532 1533 1533 1534 1534 1535 1535 1536 1536 1536 1536 1537 1537 1537 1537 1538 1538 1539 1540 1540 1541 1541 1542 1542
1484 1488 1493 1497 1501 1505 1508 1510 1513 1515 1517 1519 1520 1522 1524 1525 1527 1528 1528 1529 1530 1531 1531 1532 1532 1533 1534 1534 1534 1535 1535 1535 1536 1536 1536 1536 1537 1537 1538 1538 1539 1539 1539
1483 1487 1491 1495 1499 1503 1506 1508 1511 1513 1515 1517 1518 1520 1521 1523 1524 1525 1526 1527 1528 1529 1529 1530 1530 1531 1531 1531 1532 1532 1533 1533 1533 1534 1534 1534 1534 1535 1535 1536 1536 1537 1537
1483 1487 1490 1494 1497 1501 1503 1506 1508 1511 1513 1514 1516 1517 1518 1520 1521 1522 1523 1524 1525 1526 1527 1527 1528 1528 1528 1529 1529 1529 1530 1530 1531 1531 1532 1532 1532 1532 1532 1533 1533 1534 1534
1484 1487 1491 1493 1496 1499 1501 1504 1506 1508 1510 1511 1513 1515 1516 1517 1518 1519 1520 1521 1522 1523 1524 1524 1525 1525 1526 1526 1527 1527 1527 1528 1528 1528 1529 1529 1529 1529 1529 1530 1530 1530 1530
1484 1487 1490 1492 1495 1497 1499 1502 1504 1506 1508 1509 1511 1512 1514 1515 1516 1517 1518 1518 1519 1520 1521 1521 1522 1523 1523 1523 1524 1525 1525 1525 1525 1525 1526 1526 1526 1526 1526 1526 1526 1527 1527
1484 1486 1489 1491 1493 1496 1498 1500 1502 1504 1505 1507 1508 1510 1511 1512 1513 1514 1515 1515 1516 1516 1517 1518 1518 1519 1519 1520 1520 1521 1521 1521 1522 1522 1522 1523 1522 1523 1523 1523 1523 1523 1523
1485 1488 1489 1491 1493 1495 1497 1499 1500 1502 1503 1504 1505 1507 1507 1509 1510 1511 1511 1512 1512 1513 1513 1514 1515 1515 1516 1516 1517 1517 1518 1518 1518 1518 1519 1519 1519 1519 1519 1519 1519 1519 1519
1486 1488 1490 1491 1493 1494 1496 1497 1498 1500 1501 1502 1503 1504 1505 1505 1506 1507 1507 1508 1509 1509 1510 1510 1511 1512 1512 1512 1513 1513 1514 1513 1514 1514 1515 1515 1515 1515 1515 1515 1515 1515 1515
1487 1488 1490 1491 1492 1494 1495 1495 1497 1497 1498 1499 1500 1501 1502 1503 1503 1503 1504 1504 1505 1505 1506 1506 1507 1507 1508 1508 1509 1509 1510 1510 1510 1510 1510 1510 1511 1511 1511 1511 1511 1510 1510
1487 1489 1490 1491 1492 1492 1493 1494 1494 1495 1496 1496 1497 1498 1498 1499 1499 1500 1500 1500 1501 1501 1501 1502 1502 1502 1503 1503 1504 1504 1505 1505 1505 1506 1506 1506 1506 1507 1507 1507 1507 1506 1506
1487 1488 1489 1490 1491 1491 1491 1492 1492 1493 1493 1493 1494 1494 1495 1496 1496 1496 1496 1496 1497 1497 1497 1497 1498 1498 1498 1498 1499 1499 1500 1501 1501 1501 1502 1502 1502 1502 1502 1502 1502 1502 1502
1487 1487 1488 1489 1490 1490 1490 1490 1490 1490 1490 1490 1490 1491 1491 1492 1492 1492 1492 1492 1493 1493 1493 1493 1493 1494 1493 1493 1494 1495 1496 1496 1497 1497 1497 1498 1498 1498 1498 1497 1497 1497 1497
1486 1486 1487 1487 1487 1487 1487 1487 1487 1487 1487 1487 1487 1487 1488 1488 1489 1489 1489 1489 1489 1489 1489 1489 1489 1489 1488 1489 1489 1490 1491 1491 1492 1492 1493 1493 1493 1493 1493 1493 1493 1493 1493
1485 1486 1486 1486 1486 1486 1485 1485 1485 1484 1484 1484 1483 1484 1484 1484 1485 1485 1485 1485 1485 1485 1485 1485 1485 1485 1485 1484 1485 1485 1485 1486 1487 1487 1487 1487 1488 1488 1488 1488 1488 1488 1489
1484 1484 1484 1484 1484 1483 1483 1482 1482 1482 1481 1480 1480 1481 1481 1481 1482 1482 1481 1481 1481 1481 1481 1481 1481 1480 1481 1481 1480 1480 1481 1482 1483 1483 1482 1482 1482 1482 1483 1483 1483 1483 1483